Location: Alafon
(8.4500°N, 4.2333°E)
Time: 00:30:23
(UTC+00:00)

Cosmos 1626 Rocket - Pass Details

Date: 05 July 2020
Orbit: 602 x 632 km, 82.5° (Epoch: 06 August)

Event Time Altitude Azimuth Distance (km) Brightness Sun altitude
Exits shadow 19:27:02 39° 145° (SE) 941 4.0 -19.0°
Maximum altitude 19:28:19 53° 93° (E) 765 3.6 -19.3°
Drops below altitude 10° 19:32:37 10° 16° (NNE) 1,995 6.3 -20.3°
Sets 19:34:54 0° 12° (NNE) 2,904 7.2 -20.8°
